Regional Weather Roundup
Issued by NWS

Home | Current Version | Previous Version | Text Only | Print | Product List | Glossary Off
Versions: 1 2 3 4 5 6 7 8 9 10 11 12 13 14 15 16 17 18 19 20 21 22 23 24 25 26 27 28 29 30 31 32 33 34 35 36 37 38 39 40 41 42 43 44 45 46 47 48 49 50

000
ASUS43 KFSD 161710
RWRSD

WEATHER ROUNDUP FOR SOUTH DAKOTA
NATIONAL WEATHER SERVICE SIOUX FALLS SD
1200 PM CDT TUE SEP 16 2014

NOTE: "FAIR" INDICATES FEW OR NO CLOUDS BELOW 12,000 FEET WITH NO
SIGNIFICANT WEATHER AND/OR OBSTRUCTIONS TO VISIBILITY.


SDZ001>005-009-010-012>017-161800-
NORTHWEST AND NORTH CENTRAL SOUTH DAKOTA

CITY           SKY/WX    TMP DP  RH WIND       PRES   REMARKS
BUFFALO          N/A     70  48  45 VRB3      29.94F
FAITH            N/A     66  47  50 N5        30.00F
MOBRIDGE       SUNNY     61  46  57 CALM      29.98F
$$

SDZ012>016-024>037-041>051-057-063-072>074-161800-
SOUTHWEST AND SOUTH CENTRAL SOUTH DAKOTA

CITY           SKY/WX    TMP DP  RH WIND       PRES   REMARKS
RAPID CTY ARPT SUNNY     74  45  35 CALM      30.03S
PIERRE         SUNNY     65  49  56 NW3       29.98F
CUSTER         SUNNY     75  25  15 NW12G21   30.13F
ELLSWORTH AFB  SUNNY     71  43  36 CALM      30.02F
PHILIP         SUNNY     67  50  54 VRB5      29.99F
PINE RIDGE     SUNNY     67  52  58 W9        30.04F
WINNER         FAIR      68  50  52 S17G25    30.01F
$$

SDZ004>011-016>023-039-040-161800-
NORTHEAST SOUTH DAKOTA

CITY           SKY/WX    TMP DP  RH WIND       PRES   REMARKS
ABERDEEN       SUNNY     61  46  57 S10       30.02F
WATERTOWN      SUNNY     63  44  50 S14       30.08F
SISSETON         N/A     68  41  37 SW12      30.05F
$$

SDZ017-020-022-023-036>040-048>070-161800-
SOUTHEAST SOUTH DAKOTA

CITY           SKY/WX    TMP DP  RH WIND       PRES   REMARKS
SIOUX FALLS    SUNNY     62  46  55 S13       30.12F
HURON          SUNNY     64  47  53 S12       30.04F
CHAMBERLAIN    SUNNY     64  50  61 S13       30.02F
MITCHELL       SUNNY     65  50  58 MISG      30.05F
YANKTON        SUNNY     63  46  55 S14G21    30.11F
$$

ABBREVIATIONS USED IN REMARKS
   TC - TEMPERATURE IN CELSIUS
  WCI - WIND CHILL INDEX
   HX - HEAT INDEX
  VSB - VISIBILITY



USA.gov is the U.S. government's official web portal to all federal, state and local government web resources and services.